Year,Month,Day,Hour,Minute,Value (Times are PST for barometer in hPa)
2008,01,04,00,00,996.48
2008,01,04,00,01,996.44
2008,01,04,00,02,996.34
2008,01,04,00,03,996.27
2008,01,04,00,04,996.21
2008,01,04,00,05,996.13
2008,01,04,00,06,996.01
2008,01,04,00,07,995.97
2008,01,04,00,08,995.97
2008,01,04,00,09,995.97
2008,01,04,00,10,995.97
2008,01,04,00,11,996.04
2008,01,04,00,12,996.07
2008,01,04,00,13,996.06
2008,01,04,00,14,996.02
2008,01,04,00,15,996.07
2008,01,04,00,16,996.07
2008,01,04,00,17,996.07
2008,01,04,00,18,996.11
2008,01,04,00,19,996.07
2008,01,04,00,20,996.07
2008,01,04,00,21,996.03
2008,01,04,00,22,995.97
2008,01,04,00,23,995.93
2008,01,04,00,24,995.87
2008,01,04,00,25,995.90
2008,01,04,00,26,995.90
2008,01,04,00,27,995.87
2008,01,04,00,28,995.86
2008,01,04,00,29,995.80
2008,01,04,00,30,995.80
2008,01,04,00,31,995.77
2008,01,04,00,32,995.77
2008,01,04,00,33,995.73
2008,01,04,00,34,995.73
2008,01,04,00,35,995.70
2008,01,04,00,36,995.67
2008,01,04,00,37,995.62
2008,01,04,00,38,995.52
2008,01,04,00,39,995.46
2008,01,04,00,40,995.40
2008,01,04,00,41,995.33
2008,01,04,00,42,995.29
2008,01,04,00,43,995.26
2008,01,04,00,44,995.29
2008,01,04,00,45,995.33
2008,01,04,00,46,995.33
2008,01,04,00,47,995.33
2008,01,04,00,48,995.26
2008,01,04,00,49,995.26
2008,01,04,00,50,995.25
2008,01,04,00,51,995.19
2008,01,04,00,52,995.19
2008,01,04,00,53,995.19
2008,01,04,00,54,995.16
2008,01,04,00,55,995.12
2008,01,04,00,56,995.04
2008,01,04,00,57,994.92
2008,01,04,00,58,994.85
2008,01,04,00,59,994.85
2008,01,04,01,00,994.85
2008,01,04,01,01,994.82
2008,01,04,01,02,994.83
2008,01,04,01,03,994.90
2008,01,04,01,04,994.96
2008,01,04,01,05,994.99
2008,01,04,01,06,995.02
2008,01,04,01,07,994.99
2008,01,04,01,08,994.99
2008,01,04,01,09,994.92
2008,01,04,01,10,994.91
2008,01,04,01,11,994.79
2008,01,04,01,12,994.74
2008,01,04,01,13,994.60
2008,01,04,01,14,994.40
2008,01,04,01,15,994.35
2008,01,04,01,16,994.28
2008,01,04,01,17,994.28
2008,01,04,01,18,994.24
2008,01,04,01,19,994.28
2008,01,04,01,20,994.31
2008,01,04,01,21,994.31
2008,01,04,01,22,994.31
2008,01,04,01,23,994.28
2008,01,04,01,24,994.28
2008,01,04,01,25,994.28
2008,01,04,01,26,994.36
2008,01,04,01,27,994.41
2008,01,04,01,28,994.38
2008,01,04,01,29,994.41
2008,01,04,01,30,994.45
2008,01,04,01,31,994.48
2008,01,04,01,32,994.52
2008,01,04,01,33,994.52
2008,01,04,01,34,994.52
2008,01,04,01,35,994.55
2008,01,04,01,36,994.55
2008,01,04,01,37,994.62
2008,01,04,01,38,994.65
2008,01,04,01,39,994.68
2008,01,04,01,40,994.68
2008,01,04,01,41,994.68
2008,01,04,01,42,994.72
2008,01,04,01,43,994.72
2008,01,04,01,44,994.80
2008,01,04,01,45,994.85
2008,01,04,01,46,994.92
2008,01,04,01,47,994.94
2008,01,04,01,48,995.06
2008,01,04,01,49,995.02
2008,01,04,01,50,994.95
2008,01,04,01,51,994.84
2008,01,04,01,52,994.79
2008,01,04,01,53,994.75
2008,01,04,01,54,994.75
2008,01,04,01,55,994.73
2008,01,04,01,56,994.79
2008,01,04,01,57,994.75
2008,01,04,01,58,994.75
2008,01,04,01,59,994.72
2008,01,04,02,00,994.68
2008,01,04,02,01,994.65
2008,01,04,02,02,994.65
2008,01,04,02,03,994.68
2008,01,04,02,04,994.68
2008,01,04,02,05,994.68
2008,01,04,02,06,994.72
2008,01,04,02,07,994.72
2008,01,04,02,08,994.67
2008,01,04,02,09,994.57
2008,01,04,02,10,994.45
2008,01,04,02,11,994.37
2008,01,04,02,12,994.31
2008,01,04,02,13,994.23
2008,01,04,02,14,994.14
2008,01,04,02,15,994.06
2008,01,04,02,16,993.97
2008,01,04,02,17,993.93
2008,01,04,02,18,993.83
2008,01,04,02,19,993.73
2008,01,04,02,20,993.62
2008,01,04,02,21,993.50
2008,01,04,02,22,993.42
2008,01,04,02,23,993.30
2008,01,04,02,24,993.30
2008,01,04,02,25,993.25
2008,01,04,02,26,993.13
2008,01,04,02,27,993.08
2008,01,04,02,28,992.99
2008,01,04,02,29,993.02
2008,01,04,02,30,992.92
2008,01,04,02,31,992.88
2008,01,04,02,32,992.78
2008,01,04,02,33,992.68
2008,01,04,02,34,992.61
2008,01,04,02,35,992.55
2008,01,04,02,36,992.52
2008,01,04,02,37,992.48
2008,01,04,02,38,992.45
2008,01,04,02,39,992.45
2008,01,04,02,40,992.45
2008,01,04,02,41,992.45
2008,01,04,02,42,992.48
2008,01,04,02,43,992.52
2008,01,04,02,44,992.52
2008,01,04,02,45,992.48
2008,01,04,02,46,992.48
2008,01,04,02,47,992.44
2008,01,04,02,48,992.31
2008,01,04,02,49,992.27
2008,01,04,02,50,992.18
2008,01,04,02,51,992.14
2008,01,04,02,52,992.14
2008,01,04,02,53,992.14
2008,01,04,02,54,992.11
2008,01,04,02,55,992.14
2008,01,04,02,56,992.14
2008,01,04,02,57,992.18
2008,01,04,02,58,992.18
2008,01,04,02,59,992.18
2008,01,04,03,00,992.11
2008,01,04,03,01,992.00
2008,01,04,03,02,991.94
2008,01,04,03,03,992.01
2008,01,04,03,04,991.98
2008,01,04,03,05,991.98
2008,01,04,03,06,991.98
2008,01,04,03,07,992.01
2008,01,04,03,08,992.01
2008,01,04,03,09,992.01
2008,01,04,03,10,992.08
2008,01,04,03,11,992.14
2008,01,04,03,12,992.14
2008,01,04,03,13,992.10
2008,01,04,03,14,992.01
2008,01,04,03,15,992.01
2008,01,04,03,16,992.08
2008,01,04,03,17,992.14
2008,01,04,03,18,992.11
2008,01,04,03,19,992.04
2008,01,04,03,20,992.01
2008,01,04,03,21,991.98
2008,01,04,03,22,991.94
2008,01,04,03,23,991.87
2008,01,04,03,24,991.87
2008,01,04,03,25,991.81
2008,01,04,03,26,991.77
2008,01,04,03,27,991.70
2008,01,04,03,28,991.64
2008,01,04,03,29,991.57
2008,01,04,03,30,991.53
2008,01,04,03,31,991.47
2008,01,04,03,32,991.47
2008,01,04,03,33,991.39
2008,01,04,03,34,991.33
2008,01,04,03,35,991.32
2008,01,04,03,36,991.23
2008,01,04,03,37,991.20
2008,01,04,03,38,991.16
2008,01,04,03,39,991.16
2008,01,04,03,40,991.16
2008,01,04,03,41,991.13
2008,01,04,03,42,991.13
2008,01,04,03,43,991.09
2008,01,04,03,44,991.09
2008,01,04,03,45,991.03
2008,01,04,03,46,990.95
2008,01,04,03,47,990.86
2008,01,04,03,48,990.82
2008,01,04,03,49,990.72
2008,01,04,03,50,990.72
2008,01,04,03,51,990.68
2008,01,04,03,52,990.52
2008,01,04,03,53,990.49
2008,01,04,03,54,990.45
2008,01,04,03,55,990.38
2008,01,04,03,56,990.32
2008,01,04,03,57,990.25
2008,01,04,03,58,990.18
2008,01,04,03,59,990.18
2008,01,04,04,00,990.11
2008,01,04,04,01,990.04
2008,01,04,04,02,989.97
2008,01,04,04,03,989.88
2008,01,04,04,04,989.84
2008,01,04,04,05,989.77
2008,01,04,04,06,989.73
2008,01,04,04,07,989.64
2008,01,04,04,08,989.64
2008,01,04,04,09,989.57
2008,01,04,04,10,989.57
2008,01,04,04,11,989.54
2008,01,04,04,12,989.47
2008,01,04,04,13,989.37
2008,01,04,04,14,989.32
2008,01,04,04,15,989.13
2008,01,04,04,16,989.13
2008,01,04,04,17,989.10
2008,01,04,04,18,989.03
2008,01,04,04,19,988.96
2008,01,04,04,20,988.96
2008,01,04,04,21,989.00
2008,01,04,04,22,988.93
2008,01,04,04,23,988.93
2008,01,04,04,24,988.93
2008,01,04,04,25,988.86
2008,01,04,04,26,988.86
2008,01,04,04,27,988.79
2008,01,04,04,28,988.76
2008,01,04,04,29,988.69
2008,01,04,04,30,988.66
2008,01,04,04,31,988.65
2008,01,04,04,32,988.55
2008,01,04,04,33,988.55
2008,01,04,04,34,988.49
2008,01,04,04,35,988.49
2008,01,04,04,36,988.49
2008,01,04,04,37,988.45
2008,01,04,04,38,988.39
2008,01,04,04,39,988.42
2008,01,04,04,40,988.35
2008,01,04,04,41,988.27
2008,01,04,04,42,988.11
2008,01,04,04,43,988.08
2008,01,04,04,44,988.05
2008,01,04,04,45,988.11
2008,01,04,04,46,988.18
2008,01,04,04,47,988.21
2008,01,04,04,48,988.11
2008,01,04,04,49,988.07
2008,01,04,04,50,987.87
2008,01,04,04,51,987.66
2008,01,04,04,52,987.51
2008,01,04,04,53,987.41
2008,01,04,04,54,987.51
2008,01,04,04,55,987.47
2008,01,04,04,56,987.47
2008,01,04,04,57,987.47
2008,01,04,04,58,987.44
2008,01,04,04,59,987.40
2008,01,04,05,00,987.34
2008,01,04,05,01,987.27
2008,01,04,05,02,987.22
2008,01,04,05,03,987.13
2008,01,04,05,04,987.06
2008,01,04,05,05,987.03
2008,01,04,05,06,986.96
2008,01,04,05,07,986.93
2008,01,04,05,08,986.92
2008,01,04,05,09,986.78
2008,01,04,05,10,986.62
2008,01,04,05,11,986.69
2008,01,04,05,12,986.66
2008,01,04,05,13,986.59
2008,01,04,05,14,986.59
2008,01,04,05,15,986.52
2008,01,04,05,16,986.52
2008,01,04,05,17,986.51
2008,01,04,05,18,986.39
2008,01,04,05,19,986.34
2008,01,04,05,20,986.24
2008,01,04,05,21,986.16
2008,01,04,05,22,986.24
2008,01,04,05,23,986.12
2008,01,04,05,24,985.98
2008,01,04,05,25,985.97
2008,01,04,05,26,985.88
2008,01,04,05,27,985.85
2008,01,04,05,28,985.80
2008,01,04,05,29,985.71
2008,01,04,05,30,985.71
2008,01,04,05,31,985.61
2008,01,04,05,32,985.60
2008,01,04,05,33,985.51
2008,01,04,05,34,985.50
2008,01,04,05,35,985.41
2008,01,04,05,36,985.37
2008,01,04,05,37,985.30
2008,01,04,05,38,985.24
2008,01,04,05,39,985.20
2008,01,04,05,40,985.13
2008,01,04,05,41,985.07
2008,01,04,05,42,985.00
2008,01,04,05,43,984.93
2008,01,04,05,44,984.86
2008,01,04,05,45,984.90
2008,01,04,05,46,984.93
2008,01,04,05,47,984.86
2008,01,04,05,48,984.83
2008,01,04,05,49,984.90
2008,01,04,05,50,984.80
2008,01,04,05,51,984.76
2008,01,04,05,52,984.73
2008,01,04,05,53,984.73
2008,01,04,05,54,984.73
2008,01,04,05,55,984.69
2008,01,04,05,56,984.63
2008,01,04,05,57,984.63
2008,01,04,05,58,984.56
2008,01,04,05,59,984.53
2008,01,04,06,00,984.49
2008,01,04,06,01,984.41
2008,01,04,06,02,984.32
2008,01,04,06,03,984.31
2008,01,04,06,04,984.21
2008,01,04,06,05,984.05
2008,01,04,06,06,984.05
2008,01,04,06,07,983.97
2008,01,04,06,08,983.80
2008,01,04,06,09,983.71
2008,01,04,06,10,983.71
2008,01,04,06,11,983.64
2008,01,04,06,12,983.60
2008,01,04,06,13,983.43
2008,01,04,06,14,983.34
2008,01,04,06,15,983.30
2008,01,04,06,16,983.20
2008,01,04,06,17,983.17
2008,01,04,06,18,983.10
2008,01,04,06,19,983.04
2008,01,04,06,20,983.00
2008,01,04,06,21,982.97
2008,01,04,06,22,982.97
2008,01,04,06,23,982.87
2008,01,04,06,24,982.90
2008,01,04,06,25,982.83
2008,01,04,06,26,982.76
2008,01,04,06,27,982.73
2008,01,04,06,28,982.63
2008,01,04,06,29,982.63
2008,01,04,06,30,982.63
2008,01,04,06,31,982.59
2008,01,04,06,32,982.59
2008,01,04,06,33,982.49
2008,01,04,06,34,982.53
2008,01,04,06,35,982.53
2008,01,04,06,36,982.49
2008,01,04,06,37,982.43
2008,01,04,06,38,982.35
2008,01,04,06,39,982.26
2008,01,04,06,40,982.29
2008,01,04,06,41,982.29
2008,01,04,06,42,982.26
2008,01,04,06,43,982.31
2008,01,04,06,44,982.14
2008,01,04,06,45,981.95
2008,01,04,06,46,981.85
2008,01,04,06,47,981.88
2008,01,04,06,48,981.82
2008,01,04,06,49,981.67
2008,01,04,06,50,981.58
2008,01,04,06,51,981.61
2008,01,04,06,52,981.55
2008,01,04,06,53,981.48
2008,01,04,06,54,981.48
2008,01,04,06,55,981.37
2008,01,04,06,56,981.17
2008,01,04,06,57,981.17
2008,01,04,06,58,981.14
2008,01,04,06,59,981.14
2008,01,04,07,00,980.97
2008,01,04,07,01,981.04
2008,01,04,07,02,981.00
2008,01,04,07,03,980.97
2008,01,04,07,04,980.90
2008,01,04,07,05,980.94
2008,01,04,07,06,980.89
2008,01,04,07,07,980.77
2008,01,04,07,08,980.70
2008,01,04,07,09,980.63
2008,01,04,07,10,980.60
2008,01,04,07,11,980.50
2008,01,04,07,12,980.29
2008,01,04,07,13,980.26
2008,01,04,07,14,980.22
2008,01,04,07,15,980.22
2008,01,04,07,16,980.28
2008,01,04,07,17,980.16
2008,01,04,07,18,980.26
2008,01,04,07,19,980.29
2008,01,04,07,20,980.29
2008,01,04,07,21,980.22
2008,01,04,07,22,980.20
2008,01,04,07,23,980.29
2008,01,04,07,24,980.29
2008,01,04,07,25,980.02
2008,01,04,07,26,980.08
2008,01,04,07,27,979.99
2008,01,04,07,28,979.89
2008,01,04,07,29,979.75
2008,01,04,07,30,979.61
2008,01,04,07,31,979.75
2008,01,04,07,32,979.65
2008,01,04,07,33,979.48
2008,01,04,07,34,979.46
2008,01,04,07,35,979.55
2008,01,04,07,36,979.55
2008,01,04,07,37,979.65
2008,01,04,07,38,979.41
2008,01,04,07,39,979.47
2008,01,04,07,40,979.31
2008,01,04,07,41,979.31
2008,01,04,07,42,979.28
2008,01,04,07,43,979.31
2008,01,04,07,44,979.31
2008,01,04,07,45,979.21
2008,01,04,07,46,979.21
2008,01,04,07,47,979.21
2008,01,04,07,48,979.28
2008,01,04,07,49,979.17
2008,01,04,07,50,979.14
2008,01,04,07,51,979.07
2008,01,04,07,52,979.20
2008,01,04,07,53,979.07
2008,01,04,07,54,979.07
2008,01,04,07,55,979.07
2008,01,04,07,56,978.97
2008,01,04,07,57,978.87
2008,01,04,07,58,978.90
2008,01,04,07,59,978.90
2008,01,04,08,00,978.87
2008,01,04,08,01,978.90
2008,01,04,08,02,978.90
2008,01,04,08,03,978.93
2008,01,04,08,04,978.84
2008,01,04,08,05,978.84
2008,01,04,08,06,978.77
2008,01,04,08,07,978.80
2008,01,04,08,08,978.67
2008,01,04,08,09,978.66
2008,01,04,08,10,978.57
2008,01,04,08,11,978.53
2008,01,04,08,12,978.46
2008,01,04,08,13,978.50
2008,01,04,08,14,978.43
2008,01,04,08,15,978.36
2008,01,04,08,16,978.43
2008,01,04,08,17,978.26
2008,01,04,08,18,978.23
2008,01,04,08,19,978.16
2008,01,04,08,20,978.23
2008,01,04,08,21,978.26
2008,01,04,08,22,978.23
2008,01,04,08,23,977.99
2008,01,04,08,24,978.16
2008,01,04,08,25,977.92
2008,01,04,08,26,977.96
2008,01,04,08,27,978.02
2008,01,04,08,28,978.09
2008,01,04,08,29,977.99
2008,01,04,08,30,977.99
2008,01,04,08,31,977.96
2008,01,04,08,32,977.89
2008,01,04,08,33,977.92
2008,01,04,08,34,977.92
2008,01,04,08,35,977.89
2008,01,04,08,36,977.89
2008,01,04,08,37,977.85
2008,01,04,08,38,977.99
2008,01,04,08,39,977.92
2008,01,04,08,40,977.85
2008,01,04,08,41,977.75
2008,01,04,08,42,977.68
2008,01,04,08,43,977.52
2008,01,04,08,44,977.79
2008,01,04,08,45,977.96
2008,01,04,08,46,977.85
2008,01,04,08,47,977.52
2008,01,04,08,48,977.58
2008,01,04,08,49,977.85
2008,01,04,08,50,977.65
2008,01,04,08,51,977.75
2008,01,04,08,52,977.62
2008,01,04,08,53,977.62
2008,01,04,08,54,977.65
2008,01,04,08,55,977.72
2008,01,04,08,56,977.72
2008,01,04,08,57,977.51
2008,01,04,08,58,977.35
2008,01,04,08,59,977.41
2008,01,04,09,00,977.41
2008,01,04,09,01,977.28
2008,01,04,09,02,977.02
2008,01,04,09,03,977.11
2008,01,04,09,04,977.41
2008,01,04,09,05,977.52
2008,01,04,09,06,977.31
2008,01,04,09,07,977.35
2008,01,04,09,08,977.45
2008,01,04,09,09,977.62
2008,01,04,09,10,977.65
2008,01,04,09,11,977.21
2008,01,04,09,12,977.24
2008,01,04,09,13,977.41
2008,01,04,09,14,977.21
2008,01,04,09,15,977.21
2008,01,04,09,16,977.28
2008,01,04,09,17,977.28
2008,01,04,09,18,977.31
2008,01,04,09,19,977.31
2008,01,04,09,20,977.24
2008,01,04,09,21,977.18
2008,01,04,09,22,977.01
2008,01,04,09,23,977.24
2008,01,04,09,24,977.18
2008,01,04,09,25,977.11
2008,01,04,09,26,977.01
2008,01,04,09,27,977.01
2008,01,04,09,28,977.17
2008,01,04,09,29,977.04
2008,01,04,09,30,977.14
2008,01,04,09,31,977.18
2008,01,04,09,32,977.18
2008,01,04,09,33,976.80
2008,01,04,09,34,976.77
2008,01,04,09,35,976.77
2008,01,04,09,36,977.04
2008,01,04,09,37,976.97
2008,01,04,09,38,976.70
2008,01,04,09,39,976.63
2008,01,04,09,40,976.57
2008,01,04,09,41,976.60
2008,01,04,09,42,976.40
2008,01,04,09,43,976.43
2008,01,04,09,44,976.43
2008,01,04,09,45,976.26
2008,01,04,09,46,976.19
2008,01,04,09,47,976.33
2008,01,04,09,48,976.23
2008,01,04,09,49,975.99
2008,01,04,09,50,976.09
2008,01,04,09,51,976.03
2008,01,04,09,52,976.19
2008,01,04,09,53,976.23
2008,01,04,09,54,976.09
2008,01,04,09,55,976.40
2008,01,04,09,56,976.16
2008,01,04,09,57,976.06
2008,01,04,09,58,976.06
2008,01,04,09,59,976.13
2008,01,04,10,00,976.09
2008,01,04,10,01,976.26
2008,01,04,10,02,976.30
2008,01,04,10,03,976.33
2008,01,04,10,04,976.19
2008,01,04,10,05,976.16
2008,01,04,10,06,976.30
2008,01,04,10,07,976.26
2008,01,04,10,08,976.19
2008,01,04,10,09,976.12
2008,01,04,10,10,976.03
2008,01,04,10,11,976.06
2008,01,04,10,12,976.33
2008,01,04,10,13,976.47
2008,01,04,10,14,976.67
2008,01,04,10,15,976.53
2008,01,04,10,16,976.61
2008,01,04,10,17,976.23
2008,01,04,10,18,976.09
2008,01,04,10,19,976.13
2008,01,04,10,20,976.16
2008,01,04,10,21,976.30
2008,01,04,10,22,976.12
2008,01,04,10,23,975.95
2008,01,04,10,24,975.86
2008,01,04,10,25,975.89
2008,01,04,10,26,975.88
2008,01,04,10,27,975.75
2008,01,04,10,28,975.59
2008,01,04,10,29,975.65
2008,01,04,10,30,975.65
2008,01,04,10,31,975.66
2008,01,04,10,32,975.75
2008,01,04,10,33,975.72
2008,01,04,10,34,975.85
2008,01,04,10,35,975.75
2008,01,04,10,36,975.82
2008,01,04,10,37,975.79
2008,01,04,10,38,975.82
2008,01,04,10,39,975.86
2008,01,04,10,40,975.99
2008,01,04,10,41,975.89
2008,01,04,10,42,975.85
2008,01,04,10,43,975.75
2008,01,04,10,44,975.79
2008,01,04,10,45,975.68
2008,01,04,10,46,975.55
2008,01,04,10,47,975.48
2008,01,04,10,48,975.59
2008,01,04,10,49,975.75
2008,01,04,10,50,975.69
2008,01,04,10,51,975.86
2008,01,04,10,52,975.82
2008,01,04,10,53,975.55
2008,01,04,10,54,975.59
2008,01,04,10,55,975.65
2008,01,04,10,56,975.55
2008,01,04,10,57,975.62
2008,01,04,10,58,975.55
2008,01,04,10,59,975.72
2008,01,04,11,00,975.52
2008,01,04,11,01,975.62
2008,01,04,11,02,975.62
2008,01,04,11,03,975.69
2008,01,04,11,04,975.65
2008,01,04,11,05,975.72
2008,01,04,11,06,975.79
2008,01,04,11,07,975.72
2008,01,04,11,08,975.79
2008,01,04,11,09,975.75
2008,01,04,11,10,975.72
2008,01,04,11,11,975.65
2008,01,04,11,12,975.69
2008,01,04,11,13,975.75
2008,01,04,11,14,975.72
2008,01,04,11,15,975.62
2008,01,04,11,16,975.62
2008,01,04,11,17,975.69
2008,01,04,11,18,975.69
2008,01,04,11,19,975.62
2008,01,04,11,20,975.69
2008,01,04,11,21,975.68
2008,01,04,11,22,975.59
2008,01,04,11,23,975.69
2008,01,04,11,24,975.69
2008,01,04,11,25,975.72
2008,01,04,11,26,975.75
2008,01,04,11,27,975.69
2008,01,04,11,28,975.65
2008,01,04,11,29,975.59
2008,01,04,11,30,975.62
2008,01,04,11,31,975.55
2008,01,04,11,32,975.58
2008,01,04,11,33,975.45
2008,01,04,11,34,975.42
2008,01,04,11,35,975.45
2008,01,04,11,36,975.52
2008,01,04,11,37,975.55
2008,01,04,11,38,975.55
2008,01,04,11,39,975.52
2008,01,04,11,40,975.52
2008,01,04,11,41,975.55
2008,01,04,11,42,975.55
2008,01,04,11,43,975.62
2008,01,04,11,44,975.62
2008,01,04,11,45,975.65
2008,01,04,11,46,975.69
2008,01,04,11,47,975.61
2008,01,04,11,48,975.48
2008,01,04,11,49,975.54
2008,01,04,11,50,975.45
2008,01,04,11,51,975.38
2008,01,04,11,52,975.42
2008,01,04,11,53,975.42
2008,01,04,11,54,975.38
2008,01,04,11,55,975.35
2008,01,04,11,56,975.38
2008,01,04,11,57,975.38
2008,01,04,11,58,975.41
2008,01,04,11,59,975.31
2008,01,04,12,00,975.25
2008,01,04,12,01,975.18
2008,01,04,12,02,975.21
2008,01,04,12,03,975.35
2008,01,04,12,04,975.35
2008,01,04,12,05,975.42
2008,01,04,12,06,975.48
2008,01,04,12,07,975.48
2008,01,04,12,08,975.52
2008,01,04,12,09,975.45
2008,01,04,12,10,975.35
2008,01,04,12,11,975.37
2008,01,04,12,12,975.25
2008,01,04,12,13,975.28
2008,01,04,12,14,975.28
2008,01,04,12,15,975.38
2008,01,04,12,16,975.38
2008,01,04,12,17,975.48
2008,01,04,12,18,975.42
2008,01,04,12,19,975.35
2008,01,04,12,20,975.45
2008,01,04,12,21,975.55
2008,01,04,12,22,975.59
2008,01,04,12,23,975.52
2008,01,04,12,24,975.38
2008,01,04,12,25,975.26
2008,01,04,12,26,975.21
2008,01,04,12,27,975.25
2008,01,04,12,28,975.31
2008,01,04,12,29,975.38
2008,01,04,12,30,975.45
2008,01,04,12,31,975.45
2008,01,04,12,32,975.45
2008,01,04,12,33,975.48
2008,01,04,12,34,975.52
2008,01,04,12,35,975.52
2008,01,04,12,36,975.59
2008,01,04,12,37,975.62
2008,01,04,12,38,975.62
2008,01,04,12,39,975.62
2008,01,04,12,40,975.62
2008,01,04,12,41,975.62
2008,01,04,12,42,975.65
2008,01,04,12,43,975.59
2008,01,04,12,44,975.59
2008,01,04,12,45,975.62
2008,01,04,12,46,975.62
2008,01,04,12,47,975.65
2008,01,04,12,48,975.65
2008,01,04,12,49,975.65
2008,01,04,12,50,975.65
2008,01,04,12,51,975.65
2008,01,04,12,52,975.59
2008,01,04,12,53,975.55
2008,01,04,12,54,975.48
2008,01,04,12,55,975.52
2008,01,04,12,56,975.59
2008,01,04,12,57,975.59
2008,01,04,12,58,975.62
2008,01,04,12,59,975.62
2008,01,04,13,00,975.62
2008,01,04,13,01,975.75
2008,01,04,13,02,975.75
2008,01,04,13,03,975.82
2008,01,04,13,04,975.69
2008,01,04,13,05,975.69
2008,01,04,13,06,975.69
2008,01,04,13,07,975.75
2008,01,04,13,08,975.79
2008,01,04,13,09,975.79
2008,01,04,13,10,975.75
2008,01,04,13,11,975.69
2008,01,04,13,12,975.69
2008,01,04,13,13,975.72
2008,01,04,13,14,975.75
2008,01,04,13,15,975.75
2008,01,04,13,16,975.72
2008,01,04,13,17,975.72
2008,01,04,13,18,975.69
2008,01,04,13,19,975.69
2008,01,04,13,20,975.62
2008,01,04,13,21,975.69
2008,01,04,13,22,975.59
2008,01,04,13,23,975.55
2008,01,04,13,24,975.45
2008,01,04,13,25,975.38
2008,01,04,13,26,975.18
2008,01,04,13,27,975.18
2008,01,04,13,28,975.11
2008,01,04,13,29,975.11
2008,01,04,13,30,975.18
2008,01,04,13,31,975.25
2008,01,04,13,32,975.25
2008,01,04,13,33,975.28
2008,01,04,13,34,975.28
2008,01,04,13,35,975.35
2008,01,04,13,36,975.35
2008,01,04,13,37,975.35
2008,01,04,13,38,975.31
2008,01,04,13,39,975.27
2008,01,04,13,40,975.14
2008,01,04,13,41,975.08
2008,01,04,13,42,974.94
2008,01,04,13,43,974.91
2008,01,04,13,44,974.91
2008,01,04,13,45,974.87
2008,01,04,13,46,974.81
2008,01,04,13,47,974.77
2008,01,04,13,48,974.77
2008,01,04,13,49,974.74
2008,01,04,13,50,974.74
2008,01,04,13,51,974.81
2008,01,04,13,52,974.84
2008,01,04,13,53,974.81
2008,01,04,13,54,974.81
2008,01,04,13,55,974.84
2008,01,04,13,56,974.81
2008,01,04,13,57,974.84
2008,01,04,13,58,974.77
2008,01,04,13,59,974.77
2008,01,04,14,00,974.74
2008,01,04,14,01,974.74
2008,01,04,14,02,974.74
2008,01,04,14,03,974.77
2008,01,04,14,04,974.77
2008,01,04,14,05,974.81
2008,01,04,14,06,974.81
2008,01,04,14,07,974.87
2008,01,04,14,08,974.84
2008,01,04,14,09,974.87
2008,01,04,14,10,974.84
2008,01,04,14,11,974.84
2008,01,04,14,12,974.84
2008,01,04,14,13,974.94
2008,01,04,14,14,974.87
2008,01,04,14,15,974.94
2008,01,04,14,16,974.91
2008,01,04,14,17,974.84
2008,01,04,14,18,974.81
2008,01,04,14,19,974.77
2008,01,04,14,20,974.81
2008,01,04,14,21,974.91
2008,01,04,14,22,974.91
2008,01,04,14,23,974.84
2008,01,04,14,24,974.77
2008,01,04,14,25,974.74
2008,01,04,14,26,974.70
2008,01,04,14,27,974.70
2008,01,04,14,28,974.67
2008,01,04,14,29,974.70
2008,01,04,14,30,974.64
2008,01,04,14,31,974.70
2008,01,04,14,32,974.64
2008,01,04,14,33,974.64
2008,01,04,14,34,974.60
2008,01,04,14,35,974.60
2008,01,04,14,36,974.60
2008,01,04,14,37,974.64
2008,01,04,14,38,974.60
2008,01,04,14,39,974.57
2008,01,04,14,40,974.57
2008,01,04,14,41,974.60
2008,01,04,14,42,974.60
2008,01,04,14,43,974.60
2008,01,04,14,44,974.57
2008,01,04,14,45,974.57
2008,01,04,14,46,974.50
2008,01,04,14,47,974.40
2008,01,04,14,48,974.40
2008,01,04,14,49,974.37
2008,01,04,14,50,974.33
2008,01,04,14,51,974.33
2008,01,04,14,52,974.33
2008,01,04,14,53,974.33
2008,01,04,14,54,974.30
2008,01,04,14,55,974.26
2008,01,04,14,56,974.26
2008,01,04,14,57,974.23
2008,01,04,14,58,974.16
2008,01,04,14,59,974.10
2008,01,04,15,00,974.06
2008,01,04,15,01,974.03
2008,01,04,15,02,973.90
2008,01,04,15,03,973.89
2008,01,04,15,04,973.93
2008,01,04,15,05,973.96
2008,01,04,15,06,973.96
2008,01,04,15,07,974.03
2008,01,04,15,08,974.10
2008,01,04,15,09,974.16
2008,01,04,15,10,974.23
2008,01,04,15,11,974.37
2008,01,04,15,12,974.37
2008,01,04,15,13,974.47
2008,01,04,15,14,974.50
2008,01,04,15,15,974.54
2008,01,04,15,16,974.57
2008,01,04,15,17,974.57
2008,01,04,15,18,974.60
2008,01,04,15,19,974.57
2008,01,04,15,20,974.57
2008,01,04,15,21,974.64
2008,01,04,15,22,974.57
2008,01,04,15,23,974.57
2008,01,04,15,24,974.50
2008,01,04,15,25,974.47
2008,01,04,15,26,974.50
2008,01,04,15,27,974.47
2008,01,04,15,28,974.50
2008,01,04,15,29,974.47
2008,01,04,15,30,974.47
2008,01,04,15,31,974.47
2008,01,04,15,32,974.50
2008,01,04,15,33,974.50
2008,01,04,15,34,974.54
2008,01,04,15,35,974.50
2008,01,04,15,36,974.54
2008,01,04,15,37,974.57
2008,01,04,15,38,974.54
2008,01,04,15,39,974.47
2008,01,04,15,40,974.43
2008,01,04,15,41,974.40
2008,01,04,15,42,974.37
2008,01,04,15,43,974.33
2008,01,04,15,44,974.25
2008,01,04,15,45,974.16
2008,01,04,15,46,974.09
2008,01,04,15,47,973.96
2008,01,04,15,48,973.93
2008,01,04,15,49,973.93
2008,01,04,15,50,973.79
2008,01,04,15,51,973.76
2008,01,04,15,52,973.76
2008,01,04,15,53,973.76
2008,01,04,15,54,973.79
2008,01,04,15,55,973.82
2008,01,04,15,56,973.82
2008,01,04,15,57,973.79
2008,01,04,15,58,973.79
2008,01,04,15,59,973.72
2008,01,04,16,00,973.69
2008,01,04,16,01,973.65
2008,01,04,16,02,973.59
2008,01,04,16,03,973.59
2008,01,04,16,04,973.52
2008,01,04,16,05,973.42
2008,01,04,16,06,973.45
2008,01,04,16,07,973.42
2008,01,04,16,08,973.45
2008,01,04,16,09,973.42
2008,01,04,16,10,973.42
2008,01,04,16,11,973.38
2008,01,04,16,12,973.32
2008,01,04,16,13,973.35
2008,01,04,16,14,973.32
2008,01,04,16,15,973.32
2008,01,04,16,16,973.28
2008,01,04,16,17,973.25
2008,01,04,16,18,973.21
2008,01,04,16,19,973.21
2008,01,04,16,20,973.18
2008,01,04,16,21,973.21
2008,01,04,16,22,973.18
2008,01,04,16,23,973.18
2008,01,04,16,24,973.18
2008,01,04,16,25,973.18
2008,01,04,16,26,973.18
2008,01,04,16,27,973.25
2008,01,04,16,28,973.25
2008,01,04,16,29,973.25
2008,01,04,16,30,973.21
2008,01,04,16,31,973.15
2008,01,04,16,32,973.15
2008,01,04,16,33,973.11
2008,01,04,16,34,973.18
2008,01,04,16,35,973.18
2008,01,04,16,36,973.21